Home   Weather   Cabinda   Past weeks
Flag for Angola

Past Weather in Cabinda, Angola — Yesterday and Last 2 Weeks

Now
86 °F

Scattered clouds.


Feels Like: 99 °F
Forecast: 86 / 77 °F
Wind: 9 mph from Southwest

Location: Pointe Airport-Noire

Current Time: Mar 18, 2019 at 7:16:23 pm

Latest Report: Mar 18, 2019 at 6:00 pm


Visibility: N/A

Pressure: 29.71 "Hg

Humidity: 79%

Dew Point: 79 °F

Location of CabindaLocation

Past Weather in Cabinda — Graph

°F

Cabinda Temperature Yesterday

Maximum temperature yesterday: 86 °F (at 2:00 pm)
Minimum temperature yesterday: 73 °F (at 1:00 am)
Average temperature yesterday: 80 °F

High & Low Weather Summary for the Past Weeks

 TemperatureHumidityPressure
High91 °F (Mar 11, 12:00 pm)100% (Mar 5, 3:00 am)29.95 "Hg (Mar 5, 3:00 am)
Low73 °F (Mar 17, 1:00 am)59% (Mar 9, 5:00 pm)29.68 "Hg (Mar 14, 4:00 pm)
Average82 °F85%29.83 "Hg
* Reported Mar 3 6:00 pm — Mar 18 6:00 pm, Cabinda. Weather by CustomWeather, © 2019

Note: Actual official high and low records may vary slightly from our data, if they occured in-between our weather recording intervals... More about our weather records

Advertising

Cabinda Weather History for the Previous 24 Hours

Scroll right to see more
 ConditionsComfort  
Time TempWeatherWind HumidityBarometerVisibility
6:00 pm
Mon, Mar 18
86 °FScattered clouds.9 mph79%29.71 "HgN/A
5:00 pm86 °FScattered clouds.12 mph79%29.71 "HgN/A
4:00 pm88 °FScattered clouds.12 mph75%29.71 "HgN/A
3:00 pm88 °FScattered clouds.10 mph79%29.74 "HgN/A
2:00 pm88 °FScattered clouds.13 mph75%29.77 "HgN/A
12:00 pm88 °FPassing clouds.8 mph75%29.83 "HgN/A
11:00 am88 °FScattered clouds.7 mph75%29.86 "HgN/A
10:00 am88 °FPassing clouds.3 mph75%29.86 "HgN/A
9:00 am86 °FPassing clouds.1 mph75%29.86 "HgN/A
8:00 am81 °FPassing clouds.2 mph89%29.86 "Hg4 mi
7:00 am77 °FThunderstorms. Scattered clouds.2 mph100%29.83 "Hg6 mi
5:00 am77 °FThunderstorms. Passing clouds.1 mph94%29.80 "Hg4 mi
4:00 am77 °FThunderstorms. Passing clouds.3 mph100%29.80 "Hg4 mi
3:00 am77 °FThunderstorms. Passing clouds.5 mph100%29.80 "Hg4 mi
2:00 am79 °FPassing clouds.5 mph94%29.83 "Hg4 mi
1:00 am79 °FFog.6 mph94%29.83 "Hg2 mi
12:00 am79 °FFog.3 mph94%29.83 "Hg2 mi
11:00 pm
Sun, Mar 17
79 °FPassing clouds.3 mph94%29.83 "Hg4 mi
10:00 pm79 °FPassing clouds.1 mph94%29.80 "HgN/A
9:00 pm81 °FPassing clouds.2 mph89%29.80 "HgN/A
8:00 pm81 °FPassing clouds.2 mph89%29.80 "HgN/A
7:00 pm81 °FPassing clouds.2 mph89%29.77 "HgN/A
Weather by CustomWeather, © 2019

See weather overview